Regional Weather Roundup
Issued by NWS Huntsville, AL

Home | Current Version | Previous Version | Text Only | Print | Product List | Glossary On
Versions: 1 2 3 4 5 6 7 8 9 10 11 12 13 14 15 16 17 18 19 20 21 22 23 24 25 26 27 28 29 30 31 32 33 34 35 36 37 38 39 40 41 42 43 44 45 46 47 48 49 50
000
ASUS44 KHUN 180510
RWRHUN

WEATHER ROUNDUP FOR THE TENNESSEE VALLEY
NATIONAL WEATHER SERVICE HUNTSVILLE AL
1100 PM CST WED DEC 17 2014

ALZ001>004-180600-
NORTHWEST ALABAMA

CITY           SKY/WX    TMP DP  RH WIND       PRES   REMARKS
COURTLAND HCN    N/A     37 N/A N/A CALM        N/A
RUSSELLVILLE     N/A     37 N/A N/A MISG        N/A
SHOALS AIRPORT CLOUDY    39  32  76 E5        30.23F
SHOALS TVA RES   N/A     39 N/A N/A MISG        N/A
$$

ALZ005>007-016-180600-
NORTH CENTRAL ALABAMA

CITY           SKY/WX    TMP DP  RH WIND       PRES   REMARKS
DECATUR AP     CLOUDY    37  31  78 NE5       30.23S WCI  33
HUNTSVILLE AP  CLOUDY    38  32  79 N3        30.23S
HUN NWS/UAH      N/A     37  30  75 N5          N/A  WCI  33
MERIDIANVILLE  CLOUDY    34  30  86 N5        30.22S WCI  30
REDSTONE ARSN  CLOUDY    37  32  81 N7        30.22S WCI  32
VINEMONT AP    FAIR      36  32  87 N3        30.22S
$$

ALZ008>010-180600-
NORTHEAST ALABAMA

CITY           SKY/WX    TMP DP  RH WIND       PRES   REMARKS
ALBERTVILLE    CLOUDY    36  36 100 NE3       30.17F
FORT PAYNE     CLOUDY    34  30  86 CALM      30.20F
SCOTTSBORO AP  CLOUDY    36  32  87 NE5       30.22F WCI  32
VALLEY HEAD      N/A     32 N/A N/A MISG        N/A
$$

TNZ076-096-097-180600-
SOUTHEASTERN MIDDLE TENNESSEE

CITY           SKY/WX    TMP DP  RH WIND       PRES   REMARKS
TULLAHOMA      CLEAR     30  28  93 NE3       30.22F
WINCHESTER     CLEAR     30  28  93 CALM      30.22F
$$

...SURROUNDING SITES...

CITY           SKY/WX    TMP DP  RH WIND       PRES   REMARKS
ATLANTA        MOCLDY    39  34  82 NW8       30.14S WCI  33
ANNISTON       MOCLDY    33  31  92 W3        30.21R
BIRMINGHAM     CLOUDY    39  34  82 CALM      30.22F
CHATTANOOGA    CLOUDY    34  31  88 N3        30.23R
CORINTH        CLOUDY    41  32  70 NE8       30.23S
DALTON         MOCLDY    34  32  93 NW8       30.20S WCI  27
GADSDEN        CLOUDY    37  30  75 CALM      30.21S
GOLDEN TRNGL   CLOUDY    39  36  87 N6        30.21S WCI  35
HALEYVILLE     FAIR      36  33  88 CALM      30.22F
JACKSON TN     LGT RAIN  38  32  79 NE5       30.25S WCI  34
LEWISBURG      FAIR      32  30  92 MISG      30.24F
MEMPHIS        CLOUDY    40  32  73 NW7       30.32R
MURFREESBORO   FAIR      30  28  92 CALM      30.25S
NASHVILLE      PTCLDY    32  28  85 N6        30.27R WCI  26
OXFORD MS      MOCLDY    37  32  81 N3        30.26R
ROME           MOCLDY    38  33  82 NW3       30.20R
SAVANNAH       CLOUDY    37  30  75 NE5       30.24S WCI  34
TUPELO         CLOUDY    41  33  73 NE7       30.22F
TUSCALOOSA     CLOUDY    39  36  89 CALM      30.22F
$$

...GULF COAST WEATHER...

CITY           SKY/WX    TMP DP  RH WIND       PRES   REMARKS
GULFPORT       CLOUDY    47  42  83 CALM      30.20F
PASCAGOULA     MOCLDY    42  40  92 CALM      30.21F
MOBILE         CLOUDY    43  42  97 CALM      30.20F
GULF SHORES    MOCLDY    42  41  96 CALM      30.20F
PENSACOLA      MOCLDY    44  42  93 NW3       30.19S
DESTIN         CLOUDY    50  44  80 N6        30.19S
PANAMA CITY    MOCLDY    45  43  92 N5        30.18F
APPALACHICOLA  PTCLDY    49  43  80 CALM      30.17F
$$




USA.gov is the U.S. government's official web portal to all federal, state and local government web resources and services.